Grand Junction, CO

9:17 PM MDT on September 18, 2019 (GMT -0600)
Walker

Weather History for KGJT - April, 2019

Change the Weather History Date:

Sunday, April 14, 2019

  Actual Average Record
Temperature  
Mean Temperature 50 °F 51 °F  
Max Temperature 66 °F 65 °F 81 °F (1936)
Min Temperature 34 °F 38 °F 21 °F (1933)
Degree Days  
Heating Degree Days 15 14  
Month to date heating degree days 191 220  
Since 1 July heating degree days 5299 5252  
Cooling Degree Days 0 0  
Month to date cooling degree days 0 0  
Year to date cooling degree days 0 0  
Growing Degree Days 1 (Base 50)    
Moisture  
Dew Point 26 °F    
Average Humidity 42    
Maximum Humidity 59    
Minimum Humidity 24    
Precipitation  
Precipitation 0.00 in 0.03 in 0.44 in (1988)
Month to date precipitation 0.05 0.45  
Year to date precipitation 3.78 2.49  
Snow  
Snow 0.00 in 0.00 in 1.30 in (1945)
Month to date snowfall T 0.7  
Since 1 July snowfall 17.4 18.8  
Snow Depth 0.00 in    
Sea Level Pressure  
Sea Level Pressure 29.81 in    
Wind  
Wind Speed 9 mph (ESE)    
Max Wind Speed 25 mph    
Max Gust Speed 30 mph    
Visibility 10 miles    
Events      
T = Trace of Precipitation, MM = Missing Value Source: NWS Daily Summary

Daily Weather History Graph

Daily Weather History Graph

Search for Another Location

Airport or City:

Astronomy

Apr. 14, 2019 Rise Set
Actual Time 6:39 AM MDT 7:50 PM MDT
Civil Twilight 6:11 AM MDT 8:18 PM MDT
Nautical Twilight 5:38 AM MDT 8:51 PM MDT
Astronomical Twilight 5:04 AM MDT 9:25 PM MDT
Moon 2:28 PM MDT (4/14) 4:00 AM MDT (4/14)
Length of Visible Light 14h 06m
Length of Day
13h 11m
Waxing Gibbous, 72% of the Moon is Illuminated
Apr 14
Waxing Gibbous
Apr 19
Full
Apr 26
Last Quarter
May 4
New
May 11
First Quarter

Hourly Weather History & Observations

Time (MDT) Temp. Windchill Dew Point Humidity Pressure Visibility Wind Dir Wind Speed Gust Speed Precip Events Conditions
12:53 AM 39.9 °F 32.9 °F 24.1 °F 53% 29.93 in 10.0 mi ESE 11.5 mph - N/A   Clear
1:53 AM 39.9 °F 31.8 °F 23.0 °F 51% 29.92 in 10.0 mi ESE 15.0 mph - N/A   Clear
2:53 AM 39.9 °F 31.1 °F 23.0 °F 51% 29.91 in 10.0 mi ESE 17.3 mph - N/A   Clear
3:53 AM 37.9 °F 30.9 °F 23.0 °F 55% 29.92 in 10.0 mi East 10.4 mph - N/A   Clear
4:53 AM 35.1 °F 26.9 °F 23.0 °F 61% 29.92 in 10.0 mi ESE 11.5 mph - N/A   Clear
5:53 AM 36.0 °F 27.1 °F 23.0 °F 59% 29.91 in 10.0 mi ESE 13.8 mph - N/A   Clear
6:53 AM 37.0 °F 27.0 °F 21.9 °F 54% 29.90 in 10.0 mi ESE 18.4 mph - N/A   Clear
7:53 AM 39.9 °F 30.2 °F 23.0 °F 51% 29.91 in 10.0 mi ESE 20.7 mph - N/A   Clear
8:53 AM 44.1 °F 36.5 °F 24.1 °F 45% 29.93 in 10.0 mi ESE 17.3 mph 28.8 mph N/A   Partly Cloudy
9:53 AM 45.0 °F 38.5 °F 24.1 °F 44% 29.91 in 10.0 mi SE 13.8 mph - N/A   Clear
10:53 AM 50.0 °F - 25.0 °F 38% 29.89 in 10.0 mi ESE 5.8 mph - N/A   Partly Cloudy
11:53 AM 53.1 °F - 25.0 °F 34% 29.87 in 10.0 mi Variable 3.5 mph - N/A   Partly Cloudy
12:53 PM 57.9 °F - 24.1 °F 27% 29.84 in 10.0 mi ESE 3.5 mph - N/A   Scattered Clouds
1:53 PM 59.0 °F - 26.1 °F 28% 29.81 in 10.0 mi NW 4.6 mph - N/A   Clear
2:53 PM 63.0 °F - 27.0 °F 26% 29.76 in 10.0 mi Calm Calm - N/A   Clear
3:53 PM 64.0 °F - 27.0 °F 25% 29.74 in 10.0 mi West 5.8 mph - N/A   Clear
4:53 PM 64.9 °F - 27.0 °F 24% 29.72 in 10.0 mi WNW 9.2 mph - N/A   Clear
5:53 PM 64.9 °F - 27.0 °F 24% 29.71 in 10.0 mi WNW 5.8 mph - N/A   Partly Cloudy
6:53 PM 64.0 °F - 28.0 °F 26% 29.70 in 10.0 mi ESE 8.1 mph - N/A   Partly Cloudy
7:53 PM 59.0 °F - 30.0 °F 33% 29.68 in 10.0 mi East 8.1 mph - N/A   Scattered Clouds
8:53 PM 57.0 °F - 30.0 °F 36% 29.69 in 10.0 mi East 4.6 mph - N/A   Scattered Clouds
9:53 PM 55.9 °F - 30.0 °F 37% 29.70 in 10.0 mi ESE 6.9 mph - N/A   Partly Cloudy
10:53 PM 55.0 °F - 30.0 °F 38% 29.68 in 10.0 mi ESE 4.6 mph - N/A   Clear
11:53 PM 55.0 °F - 27.0 °F 34% 29.67 in 10.0 mi ESE 11.5 mph - N/A   Clear